Other Public Products
Issued by NWS Grand Forks, ND

Home | Current Version | Previous Version | Graphics & Text | Print | Product List | Glossary On
Versions: 1 2 3 4 5 6 7 8 9 10 11 12 13 14 15 16 17 18 19 20 21 22 23 24 25 26 27 28 29 30 31 32 33 34 35 36 37 38 39 40 41 42 43 44 45 46 47 48 49 50
000
FPUS83 KFGF 290410
OPUFGF
PRAIRIE TO PINES WEATHER ROUNDUP
NATIONAL WEATHER SERVICE EASTERN NORTH DAKOTA/GRAND FORKS ND
1100 PM CDT THU APR 28 2016

 **SATELLITE DATA USED TO AUGMENT SKY COVER AT AUTOMATED STATIONS**
 *****  WEATHER ACROSS EASTERN NORTH DAKOTA  *****

CITY           SKY/WX    TMP DP  RH WIND       PRES   REMARKS
GRAND FORKS    PTCLDY    40  30  67 NE6       30.16R
GRAND FORKS AF CLOUDY    37  27  65 NE5       30.16R
GRAND CITY NWS NOT AVBL
BUXTON         NOT AVBL
DEVILS LAKE    CLOUDY    42  30  62 N7        30.19R
FARGO          CLOUDY    51  28  41 NE8       30.12R
WAHPETON ARPT  CLOUDY    43  34  70 SW5       30.15R
$$

 *****  WEATHER ACROSS CENTRAL AND WESTERN NORTH DAKOTA  *****

CITY           SKY/WX    TMP DP  RH WIND       PRES   REMARKS
JAMESTOWN      CLOUDY    42  30  62 NE8       30.14S
BISMARCK       CLOUDY    47  32  56 NE7       30.16R
MINOT          CLOUDY    43  23  45 N3        30.18R
MINOT AFB      PTCLDY    47  20  34 E9        30.18R
GARRISON         N/A     44  21  40 NE5       30.17R
WILLISTON      CLOUDY    49  23  36 CALM      30.17R
DICKINSON      CLOUDY    41  27  57 E5        30.12S
HETTINGER      CLOUDY    40  36  86 NW5       30.15R
$$

 *****  OTHER OBSERVATIONS NORTHEAST NORTH DAKOTA  *****

CITY           SKY/WX    TMP DP  RH WIND       PRES   REMARKS
WALHALLA       FAIR      43  27  52 W5        30.20R
LANGDON        FAIR      43  19  39 NE12      30.19S
CAVALIER       FAIR      45  25  45 NE5       30.19S
GRAFTON        FAIR      43  28  56 NE7       30.19R
CANDO          FAIR      41  18  38 NE10      30.21S
FORT TOTTEN      N/A     42  24  48 CALM      29.95S
ROLLA          CLOUDY    37  21  52 NW6       30.22R
RUGBY          FAIR      43  21  42 NE13      30.19R
 ***** THE ABOVE OBSERVATIONS ARE NON NWS ARE NOT QUALITY
        CONTROLLED AND MAY MIS-REPORT RAIN FOR SNOW...
$$

 *****  OTHER OBSERVATIONS SOUTHEAST NORTH DAKOTA *****

CITY           SKY/WX    TMP DP  RH WIND       PRES   REMARKS
COOPERSTOWN    NOT AVBL
VALLEY CITY    FAIR      43  27  52 NE7       30.16S
OAKES            N/A    N/A N/A N/A MISG        N/A
GWINNER        CLOUDY    48  37  66 SW10      30.14R
SHEYENNE NWR     N/A     42  35  75 S6        29.95
BUFFALO        NOT AVBL
WYNDMERE         N/A     46  37  71 SW6         N/A
 ***** THE ABOVE OBSERVATIONS ARE NON NWS ARE NOT QUALITY
       CONTROLLED AND MAY MIS-REPORT RAIN FOR SNOW...
$$

  *****  WEATHER ACROSS NORTHERN MINNESOTA  *****

CITY           SKY/WX    TMP DP  RH WIND       PRES   REMARKS
FLAG ISLAND    PTCLDY    45  30  57 NE3       30.18R
WARROAD        PTCLDY    43  30  61 NE6       30.19R
ROSEAU         CLOUDY    43  30  61 NE3       30.18S
HALLOCK        PTCLDY    41  28  60 N3        30.18R
THF RVR FALLS  CLEAR     45  21  39 NE5       30.17S
HALSTAD        NOT AVBL
FOSSTON        CLOUDY    43  30  61 NE8       30.14S
BAUDETTE       PTCLDY    44  27  51 NE8       30.17R
WASKISH        CLEAR     45  30  57 NE5       30.15S
CROOKSTON      CLOUDY    46  25  42 E8        30.16S
$$
  *****  WEATHER ACROSS CENTRAL AND WEST MINNESOTA  *****

CITY           SKY/WX    TMP DP  RH WIND       PRES   REMARKS
BEMIDJI        CLOUDY    39  28  66 CALM      30.13S
PARK RAPIDS    PTCLDY    47  24  40 E3        30.12R
WADENA         PTCLDY    43  37  81 SW3       30.12S
DETROIT LAKES  PTCLDY    46  32  57 N3        30.13S
MOORHEAD       CLOUDY    48  30  49 NE7       30.13S
FERGUS FALLS   CLOUDY    43  37  81 SW7       30.13R
ELBOW LAKE     CLOUDY    41  39  91 S5        30.15R
MORRIS MN      CLOUDY    41  39  93 CALM      30.14R
STAPLES        PTCLDY    45  36  70 CALM      30.13R
WHEATON        CLOUDY    45  41  87 CALM      30.17R
$$
  *****  WEATHER ELSEWHERE ACROSS MINNESOTA  *****

CITY           SKY/WX    TMP DP  RH WIND       PRES   REMARKS
DULUTH         PTCLDY    35  25  66 NE5       30.12F
INTRNTL FALLS  PTCLDY    43  29  57 NE7       30.15S
ELY            CLEAR     36  27  69 CALM      30.13F
CLOQUET        CLOUDY    34  25  69 CALM      30.13S
BRAINERD       CLOUDY    45  19  35 E3        30.14R
HIBBING        CLOUDY    34  25  69 CALM      30.14R
ALEXANDRIA     CLOUDY    41  37  86 S3        30.15R
SAINT CLOUD    CLOUDY    41  39  93 CALM      30.13R
MINNEAPOLIS    LGT RAIN  40  37  89 E6        30.14R
$$

  *****  WEATHER ACROSS SOUTH DAKOTA  *****

CITY           SKY/WX    TMP DP  RH WIND       PRES   REMARKS
SIOUX FALLS    CLOUDY    39  35  86 NE5       30.11S
BROOKINGS      MOCLDY    38  36  92 E7        30.12R
WATERTOWN      CLOUDY    40  36  86 CALM      30.13R
HURON          CLOUDY    39  36  89 NE5       30.14S
SISSETON         N/A     43  37  79 S3        30.14R
ABERDEEN       CLOUDY    44  36  73 S5        30.15R
MITCHELL       CLOUDY    40  36  86 NE9       30.13F
PIERRE         CLOUDY    43  38  82 N3        30.13R
MOBRIDGE       CLOUDY    47  39  74 E6        30.11R
RAPID CITY     CLOUDY    37  34  89 NW3       30.14R
$$

  *****  SOME WEATHER IN NEARBY STATES *****

CITY           SKY/WX    TMP DP  RH WIND       PRES   REMARKS
GLASGOW MT     CLOUDY    43  34  70 E5        30.13S
GREAT FALLS MT CLOUDY    39  33  79 NE9       30.06S
CHEYENNE WY    CLOUDY    34  32  92 S6        30.03F
SCOTTSBLUFF NE CLOUDY    38  34  85 NE5       30.11S
OMAHA NE       CLOUDY    46  41  82 NW6       30.11R
DES MOINES IA  DRIZZLE   49  45  86 NW9       30.06R FOG
DAVENPORT IA   CLOUDY    49  47  93 E9        30.01R FOG
CHICAGO IL     CLOUDY    42  41  96 N10G22    30.00F FOG
EAU CLAIRE WI  RAIN      39  38  96 CALM      30.11S FOG
LA CROSSE WI   CLOUDY    41  36  82 N8        30.10R
$$

  *****  SOME NATIONAL WEATHER *****

CITY           SKY/WX    TMP DP  RH WIND       PRES   REMARKS
LA GUARDIA NY  CLOUDY    49  38  65 VRB3      30.05F
RALEIGH NC     CLOUDY    66  64  93 E3        29.92R
ATLANTA GA     PTCLDY    71  59  65 W5        29.98S
NEW ORLEANS LA MOCLDY    75  70  84 SE5       29.95S
OKLAHOMA CITY  MOCLDY    64  52  64 NE13      29.88R
ALBUQUERQUE NM MOCLDY    62   9  12 S8        29.74R
SALT LAKE CITY MOCLDY    51  32  48 NE7       29.83R
LOS ANGELES CA PTCLDY    59  50  72 N5        29.92R
BOISE ID       MOCLDY    57  34  41 NW15      29.85R
SEATTLE WA     CLOUDY    56  47  71 SW5       30.09R
$$

*** WEATHER ACROSS MANITOBA...SASKATCHEWAN AND ONTARIO ***
                ***ONTARIO***

CITY           SKY/WX    TMP DP  RH WIND       PRES   REMARKS
GERALDTON      PTCLDY    32  27  80 CALM      30.19S
THUNDER BAY    PTCLDY    30  25  80 W5        30.16S
SIOUX LOOKOUT  MOCLDY    43  28  56 VRB3      30.20R
TORONTO        CLOUDY    43  23  45 E8        30.07S
BIG TROUT LK   CLOUDY    32  27  80 N2        30.30R
PICKLE LAKE    NOT AVBL
DRYDEN         CLOUDY    45  30  57 NE6       30.18S
KENORA         PTCLDY    43  30  61 NE7       30.19S
$$
                *** MANITOBA***

CITY           SKY/WX    TMP DP  RH WIND       PRES   REMARKS
BRANDON        MOCLDY    36  16  44 NE8       30.24R
DAUPHIN        CLEAR     39  16  38 SE3       30.27R
ISLAND LAKE    CLEAR     37  10  32 NE3       30.32R
PILOT MOUND    NOT AVBL
THE PAS        CLEAR     36  23  60 SE5       30.29S
THOMPSON       MOCLDY    43  16  33 VRB2      30.31S
WINNIPEG       PTCLDY    41  21  45 NE12      30.22S
LYNN LAKE      MOCLDY    48  23  37 S5        30.20S
GILLAM         MOCLDY    32  18  55 E5        30.39S
$$
                ***SASKATCHEWAN***

CITY           SKY/WX    TMP DP  RH WIND       PRES   REMARKS
ESTEVAN        MOCLDY    41  18  38 E9        30.19S
KINDERSLEY     PTCLDY    43  25  49 SE10      30.12F
LLOYDMINSTER   MOCLDY    50  25  37 SE13      30.10S
PRINCE ALBERT  PTCLDY    46  28  49 SE5       30.20R
REGINA         PTCLDY    48  19  32 E15       30.20R
YORKTON        CLEAR     41  23  48 CALM      30.23R
N. BATTLEFORD  CLEAR     48  23  37 SE12      30.17R  C1F1C2F2C3F3C4F4C5F5C6F6C7F7C8F8C9F9CaFaCbFbCcFcCdFdCe!


USA.gov is the U.S. government's official web portal to all federal, state and local government web resources and services.